CAPE
0 0 0 0 0 0 0 0 0 0 0 0 6 0 0 0 0 0 0 0 0 0 0 0 4 11 10 27 5 16 55 76 324 314 380 434 486 638 873 1046 1199 1449 1477 1696 1697 1740 1626 1623 1820 2000 2365 2496 2418 2571 2722 2844 2925 3062 2981 2905 2965 3008 3176
0 0 0 0 0 0 0 0 0 0 0 12 0 0 24 0 0 4 0 0 0 0 0 506 3 0 5 38 69 18 82 225 220 232 552 586 552 654 956 1232 1492 1553 1465 1636 1676 1687 1606 1681 1801 2104 2606 2560 2605 2726 2687 2848 2963 3047 3068 2965 2936 3010 3106
0 0 0 0 0 0 0 0 0 0 0 0 118 15 0 0 0 0 0 0 0 0 0 0 0 4 32 189 364 40 64 70 108 280 544 699 650 635 834 958 1284 1349 1497 1661 1809 1700 1640 1790 2056 2341 2587 2582 2615 2665 2621 2645 2872 2906 3048 2916 2964 3023 3026
0 0 0 0 0 0 0 0 0 0 0 12 0 0 52 0 0 0 0 0 0 0 0 0 0 6 430 188 227 102 30 82 244 321 362 661 777 820 820 840 1126 1302 1410 1516 1724 1775 1746 1878 2155 2215 2223 2237 2243 2406 2624 2689 2786 2996 3066 3050 3034 3060 3014
0 0 0 0 0 0 0 0 0 0 0 0 2 0 0 0 0 0 0 0 0 0 0 0 0 46 223 297 291 536 392 67 129 331 449 702 807 857 857 982 1083 1222 1289 1368 1593 1788 1874 1974 2125 1984 1940 2104 2133 2242 2512 2604 2807 2906 3006 3006 3008 3083 3046
0 0 0 0 0 0 0 0 0 0 0 0 0 0 0 0 0 2 0 0 0 0 0 0 27 29 70 254 294 534 402 294 176 268 394 818 866 982 1010 1020 1065 1163 1352 1480 1628 1859 2030 2110 2063 1981 1988 2116 2178 2282 2417 2499 2480 2711 2627 2914 3111 3166 3168
0 0 0 0 0 0 0 0 0 0 0 0 0 0 0 0 0 0 6 0 0 104 0 0 0 1 0 48 42 74 106 265 233 208 133 682 1022 932 820 962 971 1176 1547 1641 1862 2171 2329 2354 2332 2193 2226 2224 2287 2423 2509 2566 2574 2673 2637 2901 3123 3261 3189
0 0 0 0 0 0 0 0 0 0 0 0 0 0 63 0 0 0 0 0 0 3 153 0 0 280 293 98 5 73 88 174 228 93 127 750 936 1110 1005 992 1044 1452 1787 1954 2268 2535 2603 2564 2583 2493 2509 2480 2467 2527 2505 2537 2670 2794 2844 2898 3056 3253 3140
0 0 0 0 0 0 0 0 0 0 0 0 0 0 16 0 0 0 0 0 0 0 442 72 35 0 0 0 14 80 210 563 252 227 489 718 1114 1254 1103 1253 1450 1637 1663 2113 2466 2432 2664 2757 2654 2758 2755 2704 2619 2707 2650 2639 2781 2860 2984 2998 3050 3095 3047
0 0 0 0 0 0 0 0 0 0 0 0 0 0 0 0 78 4 0 0 0 272 198 2 27 16 28 21 30 30 66 461 275 278 486 1024 1077 1308 1330 1535 1626 1444 2051 2446 2538 2662 2718 2621 2584 2865 2888 2740 2683 2774 2828 2761 2793 2870 2965 3050 3022 3037 2884
0 0 0 0 0 0 0 0 0 0 0 0 0 6 0 0 8 0 0 0 0 0 0 8 4 113 55 36 271 334 418 308 399 656 796 850 1168 1340 1132 1550 1710 2185 2148 2212 2446 2628 2562 2462 2644 2816 2722 2674 2644 2844 2874 2732 2772 2898 3055 3098 3096 2973 2770
0 0 0 0 0 0 0 0 0 0 0 0 0 0 0 46 0 0 0 0 0 0 2 65 187 174 386 520 689 586 621 600 438 441 824 657 763 979 1424 1502 1608 1800 2198 2411 2437 2544 2502 2573 2764 2688 2730 2760 2786 2892 2826 2770 2714 2808 2974 3096 3135 2968 2672
0 0 0 0 0 0 0 0 0 0 0 0 0 0 0 14 0 0 0 0 0 14 0 21 164 338 392 164 442 406 644 450 445 405 324 419 573 886 1031 1500 1854 2010 2149 2386 2348 2418 2489 2499 2537 2615 2624 2673 2815 2855 2702 2804 2668 2742 2935 3136 3144 2956 2636
0 0 0 0 0 0 0 0 0 0 0 0 0 0 0 0 0 0 13 32 0 0 0 1 76 370 220 467 438 174 120 196 491 386 624 558 625 707 977 1342 1467 1868 2069 2332 2415 2436 2500 2406 2520 2479 2608 2749 2724 2696 2690 2718 2729 2696 3132 3226 3202 2894 2599
0 0 0 0 0 0 0 0 0 0 0 0 0 0 0 0 0 0 0 163 102 0 44 39 469 542 63 44 10 42 274 439 409 521 543 638 674 728 1066 1555 1422 1685 1931 2129 2320 2362 2392 2398 2490 2506 2598 2558 2556 2364 2512 2552 2710 2835 3109 3274 3216 2862 2609
0 0 0 0 0 0 0 0 0 0 0 0 0 0 0 0 0 0 0 0 0 0 0 0 19 115 230 131 339 473 497 334 640 660 707 805 870 856 974 1131 1302 1552 1624 1922 2012 2111 2169 2286 2445 2468 2526 2481 2390 2263 2480 2546 2505 2690 2860 3005 3011 2836 2604
2 1 0 0 0 0 0 0 0 0 0 0 0 0 0 0 0 0 0 0 0 0 131 10 34 12 124 246 274 492 563 634 549 828 946 870 911 1024 1095 1234 1340 1295 1305 1564 1834 1833 1951 2000 2144 2204 2459 2262 2353 2424 2537 2618 2546 2842 2938 2983 2969 2803 2499
39 34 0 0 0 0 0 0 0 0 0 0 0 0 0 0 0 0 0 0 0 62 125 0 119 140 261 394 711 619 729 868 830 753 1092 1016 900 835 831 1135 1217 1342 1413 1410 1595 1940 2096 2044 1962 2150 2071 2171 2388 2524 2689 2916 2945 2969 2962 2926 2874 2705 2435
12 56 0 0 0 0 1 79 4 0 0 0 0 0 0 0 0 0 0 1 36 126 12 79 161 171 942 130 175 102 54 236 476 656 620 912 789 868 1145 1187 1034 1431 1546 1612 1693 1867 1755 1633 1940 2114 2060 2045 2338 2412 2598 2731 2907 2982 2892 2880 2678 2552 2256
16 19 12 11 24 40 33 0 10 0 0 0 0 0 0 7 0 0 0 0 0 157 172 92 254 248 116 100 150 147 125 285 386 342 466 550 613 908 901 1243 1552 1677 1339 1514 1424 1701 1741 2053 1908 1820 2000 1875 1908 2304 2587 2726 2842 2796 2768 2692 2532 2296 2076
48 182 20 28 144 19 19 29 34 20 16 0 0 0 0 19 2 0 0 0 71 55 30 42 31 110 61 249 212 15 40 86 152 433 607 576 791 1120 1298 1120 1500 2028 1896 2012 1745 2203 1956 1810 1920 1887 2033 1864 2100 2380 2399 2580 2718 2620 2525 2486 2358 2090 1822
11 24 13 49 17 2 91 64 74 24 2 17 67 66 80 70 32 0 0 55 122 207 54 2 80 221 68 58 176 180 168 60 123 185 480 572 784 1062 1177 2035 1990 2077 2119 2115 2090 1718 1818 2104 2475 2438 2137 2163 2375 2431 2535 2569 2526 2450 2302 2288 2155 1874 1680
20 24 11 9 30 69 448 238 100 76 17 15 64 3 1 292 55 31 36 58 256 295 197 227 182 103 60 196 309 490 398 194 154 460 528 582 841 1143 1288 1518 1838 2123 2407 2290 2016 2203 2154 2060 1838 2039 2226 2336 2325 2473 2488 2380 2318 2238 2159 2128 1875 1676 1557
38 23 2 6 82 121 261 129 88 60 74 6 28 7 13 320 77 119 79 94 197 211 310 250 305 206 192 393 299 581 1042 796 1066 1337 1328 1339 1284 1413 1688 1898 2092 2047 1986 2064 2172 2042 1791 1501 1432 1804 1936 2088 2333 2346 2208 2020 2059 2102 1976 1846 1666 1508 1315
26 16 21 132 244 412 202 41 40 54 85 71 125 17 251 236 227 72 26 66 70 186 162 118 358 294 1020 1234 1162 1361 1371 1243 1413 1615 1700 1787 1800 1733 1615 1532 1546 1694 1718 1834 1754 1577 1390 1315 1372 1552 1842 1956 1837 1740 1775 1878 1978 1888 1747 1551 1359 1285 1224
35 16 11 19 202 180 5 32 16 84 2 46 138 402 5 64 65 17 14 8 10 89 468 556 1089 1449 1260 1309 1473 1775 1833 1912 1852 1619 1574 1484 1409 1396 1412 1410 1370 1344 1282 1295 1208 1114 1148 1200 1155 1339 1677 1786 1546 1577 1628 1816 1852 1506 1380 1280 1212 1141 1163
24 12 50 4 27 454 4 210 278 215 219 569 174 166 156 102 242 291 474 414 580 985 1242 1450 1523 1395 1387 1549 1732 1861 1983 2088 2105 2048 2002 1869 1665 1584 1500 1342 1302 1410 1476 1366 1148 882 993 1097 1334 1348 1582 1624 1551 1430 1746 1739 1301 1159 1176 1120 1116 1124 1161
797 476 276 63 344 78 13 0 210 348 240 148 230 445 465 530 588 754 828 1013 1202 1356 1504 1418 1433 1469 1445 1526 1639 1602 1593 1708 1958 2154 2305 2250 1939 1508 1190 1097 1212 1383 1193 874 853 1012 1106 1148 1292 1388 1648 1653 1542 1678 1796 1235 1147 1104 1100 1150 1194 1206 1170
304 587 753 60 67 103 120 65 2 181 421 630 641 727 722 695 693 839 823 791 821 928 1082 1231 1188 1164 1249 1360 1424 1580 1570 1561 1473 1369 1440 1653 1702 1639 1376 1096 1075 1174 1178 1021 977 1080 1227 1363 1508 1496 1652 1867 1696 1928 1400 1128 1078 1095 1184 1218 1243 1202 1181
262 14 17 30 144 177 174 114 347 330 329 323 314 319 251 276 323 332 445 488 600 824 1012 838 918 1017 1032 1074 1070 1248 1504 1665 1954 1886 1723 1685 1650 1620 1471 1202 1036 1013 1061 1136 1175 1248 1319 1540 1638 1676 1706 1812 2124 1792 1213 1100 1104 1192 1234 1255 1234 1203 1164
79 21 320 74 64 121 108 121 89 85 86 69 55 51 81 84 50 40 138 132 75 164 460 594 663 658 789 816 1020 1249 1354 1251 1594 1889 2255 2166 2070 2094 1823 1493 1335 1317 1232 1261 1372 1338 1482 1562 1531 1625 1559 1484 1700 1228 1122 1091 1145 1187 1198 1188 1175 1142 1100
222 12 116 52 65 114 80 71 63 58 64 46 36 22 34 112 112 131 122 123 94 128 183 466 480 540 724 1000 1099 960 1149 1336 1445 1533 1609 1873 1926 1500 1672 1597 1546 1589 1668 1616 1448 1360 1495 1479 1550 1474 1383 1312 1259 1166 1089 1141 1185 1214 1142 1030 981 959 975
0 5 150 0 0 3 96 31 19 21 24 2 0 0 29 36 83 94 90 107 97 93 111 384 500 584 595 856 1058 941 1242 1468 1438 1386 1496 1479 1509 1629 1754 1658 1716 1934 1670 1516 1393 1353 1336 1358 1378 1405 1257 1197 1154 1121 1140 1202 1297 1244 1064 872 836 858 777
20 170 0 1 0 0 0 0 20 0 0 0 14 0 0 13 81 80 80 37 0 56 76 118 129 116 145 138 519 434 1052 1324 1401 1332 1190 1119 1176 1326 1305 1348 1414 1443 1472 1555 1345 1177 1139 1152 1176 1195 1191 1168 1147 1151 1212 1302 1310 1180 1011 928 927 940 877
70 67 0 0 0 0 0 0 0 0 0 9 37 34 0 0 26 63 49 60 68 100 120 101 110 133 140 109 74 64 47 707 1068 1139 1112 1136 1138 1162 1166 1281 1347 1489 1389 1317 1282 1138 1058 946 983 1028 1120 1128 1170 1213 1304 1392 1203 1001 1002 922 782 743 698
0 0 0 0 0 0 0 0 0 0 0 0 6 8 8 22 28 23 30 26 28 36 30 31 39 42 44 47 37 44 62 54 49 38 620 841 960 1085 1172 1240 1263 1220 1177 1187 1128 1164 1003 911 1024 1002 1036 1099 1165 1272 1361 1220 875 974 912 877 816 733 691
0 0 0 0 0 0 0 0 0 0 0 0 0 0 0 0 0 0 0 0 0 0 0 0 0 4 24 42 14 9 13 40 15 48 268 438 433 690 853 1230 1388 1285 1269 1184 1175 1124 974 980 1134 1099 1001 1065 1168 1296 1273 898 810 916 958 894 829 862 853
Wind_Speed
nan nan nan nan nan nan nan nan nan nan nan nan nan nan nan nan nan nan nan nan nan nan nan nan nan nan nan nan nan nan nan nan 15 11 13 13 12 11 11 13 14 16 17 18 19 20 21 20 19 19 19 20 21 21 22 22 22 22 22 21 19 17 16
nan nan nan nan nan nan nan nan nan nan nan nan nan nan nan nan nan nan nan nan nan nan nan 24 nan nan nan nan nan nan nan 14 10 12 15 16 16 15 14 15 16 19 20 21 21 22 25 25 24 22 20 20 19 19 20 21 20 19 18 18 18 17 17
nan nan nan nan nan nan nan nan nan nan nan nan 49 nan nan nan nan nan nan nan nan nan nan nan nan nan nan 8 8 nan nan nan 13 14 16 18 19 16 16 16 15 16 17 19 22 24 26 25 24 22 20 19 16 15 15 16 17 16 16 16 15 14 15
nan nan nan nan nan nan nan nan nan nan nan nan nan nan nan nan nan nan nan nan nan nan nan nan nan nan 11 10 8 13 nan nan 12 13 15 19 20 18 17 16 16 17 19 23 27 27 27 27 25 22 21 19 18 15 13 12 12 12 14 14 14 15 16
nan nan nan nan nan nan nan nan nan nan nan nan nan nan nan nan nan nan nan nan nan nan nan nan nan nan 8 4 4 8 9 nan 13 14 16 18 19 16 15 15 16 18 20 23 26 27 25 24 23 22 19 18 16 13 12 13 13 13 13 12 13 13 16
nan nan nan nan nan nan nan nan nan nan nan nan nan nan nan nan nan nan nan nan nan nan nan nan nan nan nan 7 7 6 5 8 12 14 16 16 17 17 16 16 18 18 21 23 26 27 24 22 22 21 17 13 12 12 11 12 12 12 13 13 14 15 17
nan nan nan nan nan nan nan nan nan nan nan nan nan nan nan nan nan nan nan nan nan 42 nan nan nan nan nan nan nan nan 6 6 14 16 16 17 19 20 16 16 17 19 23 25 28 30 27 23 20 19 15 12 11 13 12 12 14 14 15 16 15 16 19
nan nan nan nan nan nan nan nan nan nan nan nan nan nan nan nan nan nan nan nan nan nan 38 nan nan 19 23 nan nan nan nan 9 16 nan 18 20 21 20 17 17 20 22 25 26 27 27 23 19 16 15 13 12 11 12 13 13 16 17 17 17 17 20 23
nan nan nan nan nan nan nan nan nan nan nan nan nan nan nan nan nan nan nan nan nan nan 39 nan nan nan nan nan nan nan 12 13 16 17 18 20 22 21 17 18 22 25 25 25 26 25 23 21 18 15 15 15 15 15 15 16 17 19 18 18 19 23 26
nan nan nan nan nan nan nan nan nan nan nan nan nan nan nan nan nan nan nan nan nan 46 39 nan nan nan nan nan nan nan nan 13 15 16 17 21 23 19 17 20 23 23 24 25 25 23 20 20 19 17 16 16 16 14 15 16 16 18 20 20 22 25 27
nan nan nan nan nan nan nan nan nan nan nan nan nan nan nan nan nan nan nan nan nan nan nan nan nan 31 nan nan 18 20 15 13 16 18 20 21 20 19 19 21 21 26 26 25 24 22 19 18 18 17 17 17 16 15 16 17 16 18 20 22 24 25 28
nan nan nan nan nan nan nan nan nan nan nan nan nan nan nan nan nan nan nan nan nan nan nan nan 29 29 29 26 24 22 18 15 19 22 25 23 19 18 22 22 22 22 25 26 24 21 18 16 16 16 16 16 16 16 17 17 18 19 21 24 25 27 28
nan nan nan nan nan nan nan nan nan nan nan nan nan nan nan nan nan nan nan nan nan nan nan nan 28 28 27 24 20 18 19 24 24 22 18 15 16 18 19 18 20 23 25 25 23 20 17 17 16 16 16 16 16 17 17 17 19 21 23 25 26 28 28
nan nan nan nan nan nan nan nan nan nan nan nan nan nan nan nan nan nan nan nan nan nan nan nan nan 26 25 23 26 26 16 11 16 14 13 14 17 17 15 16 18 20 23 25 23 20 18 19 18 17 17 18 18 19 19 19 21 22 25 27 27 28 28
nan nan nan nan nan nan nan nan nan nan nan nan nan nan nan nan nan nan nan 50 43 nan nan nan 37 40 nan nan nan nan 13 15 14 12 12 15 15 13 13 17 20 22 24 25 24 22 20 20 20 20 20 19 19 21 21 23 25 27 29 29 29 30 29
nan nan nan nan nan nan nan nan nan nan nan nan nan nan nan nan nan nan nan nan nan nan nan nan nan 34 30 21 15 15 17 15 14 13 13 15 15 15 17 20 22 25 26 27 25 23 23 22 23 23 24 23 24 25 26 28 30 31 32 33 33 33 33
nan nan nan nan nan nan nan nan nan nan nan nan nan nan nan nan nan nan nan nan nan nan 41 nan nan nan 23 23 23 20 19 20 17 15 16 17 17 19 22 24 25 26 28 28 27 26 26 25 25 26 29 29 29 30 31 32 34 35 36 36 36 37 37
nan nan nan nan nan nan nan nan nan nan nan nan nan nan nan nan nan nan nan nan nan nan 42 nan 29 27 24 22 25 28 25 21 18 16 19 21 22 24 26 27 28 29 31 30 29 30 30 29 29 31 32 32 32 33 34 35 36 36 37 37 38 39 39
nan nan nan nan nan nan nan nan nan nan nan nan nan nan nan nan nan nan nan nan nan 39 nan nan 25 26 36 38 33 26 nan 21 21 20 24 25 25 27 31 33 34 34 34 33 33 33 33 33 32 33 32 32 34 36 36 36 36 38 37 38 39 40 41
nan nan nan nan nan nan nan nan nan nan nan nan nan nan nan nan nan nan nan nan nan 35 32 nan 37 37 38 nan 37 33 27 22 20 22 22 24 25 27 30 35 36 36 34 34 34 34 34 34 34 34 34 36 37 38 38 37 38 38 38 39 40 42 45
nan 48 nan nan 50 nan nan nan nan nan nan nan nan nan nan nan nan nan nan nan nan nan nan nan nan 37 nan 35 36 nan nan nan 23 23 25 27 30 34 35 35 36 36 35 36 36 38 37 35 35 35 38 39 40 41 39 38 39 39 40 41 43 46 48
nan nan nan nan nan nan nan nan nan nan nan nan nan nan nan nan nan nan nan nan 34 35 nan nan nan 36 nan nan 32 34 31 nan 26 29 33 35 38 38 38 41 44 43 43 42 41 38 37 36 37 39 41 42 42 41 40 40 41 41 42 44 47 49 51
nan nan nan nan nan nan 50 48 45 nan nan nan nan nan nan 53 nan nan nan nan 36 35 36 39 38 35 nan 31 33 34 32 31 32 35 37 39 43 44 45 45 47 46 44 43 42 42 41 41 40 42 44 45 43 40 39 40 41 42 43 46 50 52 54
nan nan nan nan nan 46 48 47 nan nan nan nan nan nan nan 49 nan 41 nan nan 35 35 36 37 34 32 30 31 34 34 36 38 40 40 42 45 47 48 50 51 49 48 45 45 44 43 44 44 44 46 46 45 44 43 42 41 41 41 45 48 52 55 57
nan nan nan 47 42 43 48 nan nan nan nan nan 32 nan 51 53 45 nan nan nan nan 39 39 36 36 41 41 43 43 40 41 46 48 47 47 47 48 50 51 51 49 47 44 44 45 46 45 45 44 45 46 48 48 47 45 42 41 43 48 52 55 58 60
nan nan nan nan 44 44 nan nan nan nan nan nan 30 45 nan nan nan nan nan nan nan nan 41 41 43 43 44 45 43 43 43 48 49 49 49 52 54 54 54 51 49 46 44 45 47 47 46 46 44 45 48 51 51 50 45 42 44 47 51 54 58 60 58
nan nan nan nan nan 43 nan 53 40 35 30 34 33 36 47 50 50 49 49 48 45 44 46 45 44 43 44 46 47 46 45 48 51 51 51 52 51 51 50 48 43 43 44 46 47 48 48 49 47 47 49 51 51 49 45 46 48 52 55 58 59 57 52
42 48 44 nan 46 nan nan nan 40 41 34 30 26 32 44 50 50 50 50 51 49 48 47 47 45 43 44 44 44 46 48 48 50 54 54 53 51 52 52 50 47 50 50 50 53 53 53 52 52 50 47 48 49 48 48 49 53 56 59 58 55 50 46
34 35 39 nan nan 41 46 nan nan 39 36 30 30 34 41 46 51 49 50 50 49 48 49 50 48 47 45 46 46 48 47 48 51 56 55 55 55 54 54 55 55 55 55 54 55 56 53 53 52 50 47 48 49 49 51 54 57 58 57 54 50 47 44
37 nan nan nan 38 43 49 48 46 43 39 36 33 35 40 44 48 50 51 51 50 50 49 53 51 49 48 52 52 53 54 55 57 58 58 56 55 53 52 53 55 54 53 53 53 52 51 50 50 49 48 48 50 52 55 56 55 53 52 51 49 46 43
nan nan 28 nan nan 44 50 48 nan nan nan nan nan nan nan nan nan nan 52 52 nan 51 53 54 52 53 53 55 54 53 53 55 56 56 53 49 47 46 48 47 49 48 49 50 50 49 49 49 49 49 50 51 53 56 54 52 50 49 48 48 46 45 44
40 nan 29 nan nan 47 nan nan nan nan nan nan nan nan nan 49 50 50 50 54 nan 55 56 54 55 54 53 51 48 49 49 47 45 44 43 43 44 45 45 44 45 47 46 47 48 49 50 49 50 51 52 52 53 51 48 46 46 46 45 44 44 45 46
nan nan 36 nan nan nan nan nan nan nan nan nan nan nan nan nan nan nan nan 56 nan nan 56 56 56 55 53 49 47 48 47 46 44 43 43 45 46 46 45 43 43 43 44 46 47 47 47 47 47 49 49 48 47 46 44 44 44 43 44 45 45 46 45
nan 28 nan nan nan nan nan nan nan nan nan nan nan nan nan nan nan nan nan nan nan nan nan 58 58 57 53 52 51 52 50 50 48 48 47 47 48 47 45 44 44 45 45 45 43 41 40 39 39 39 41 41 40 40 42 42 43 43 45 45 44 44 43
nan nan nan nan nan nan nan nan nan nan nan nan nan nan nan nan nan nan nan nan nan nan 57 56 57 55 54 51 nan nan nan 50 49 49 49 49 49 48 45 44 44 44 43 40 38 36 35 36 35 35 36 37 38 38 39 39 40 41 43 43 42 42 43
nan nan nan nan nan nan nan nan nan nan nan nan nan nan nan nan nan nan nan nan nan nan nan nan nan nan nan nan nan nan nan nan nan nan 52 52 48 43 39 37 36 36 36 34 31 30 32 33 34 35 35 36 37 37 36 36 37 39 41 43 43 44 44
nan nan nan nan nan nan nan nan nan nan nan nan nan nan nan nan nan nan nan nan nan nan nan nan nan nan nan nan nan nan nan nan nan nan 48 46 43 39 36 35 33 32 32 32 32 33 34 34 35 36 36 37 37 36 36 36 38 41 43 44 44 46 48
Wind_Direction
nan nan nan nan nan nan nan nan nan nan nan nan nan nan nan nan nan nan nan nan nan nan nan nan nan nan nan nan nan nan nan nan 286 320 341 354 3 1 349 350 346 342 342 342 340 337 336 334 328 326 321 316 316 308 305 307 305 303 309 317 319 316 320
nan nan nan nan nan nan nan nan nan nan nan nan nan nan nan nan nan nan nan nan nan nan nan 227 nan nan nan nan nan nan nan 289 329 360 351 355 359 356 345 339 331 333 341 344 342 340 340 337 337 335 332 327 320 313 310 307 303 307 309 310 316 318 328
nan nan nan nan nan nan nan nan nan nan nan nan 226 nan nan nan nan nan nan nan nan nan nan nan nan nan nan 202 264 nan nan nan 8 5 356 352 351 342 337 340 327 328 336 341 340 340 340 337 333 334 336 332 326 319 313 314 318 322 316 310 315 318 332
nan nan nan nan nan nan nan nan nan nan nan nan nan nan nan nan nan nan nan nan nan nan nan nan nan nan 219 192 236 291 nan nan 355 352 345 339 337 337 336 334 330 331 339 344 341 337 336 335 334 336 339 339 348 344 329 325 323 314 316 321 323 331 336
nan nan nan nan nan nan nan nan nan nan nan nan nan nan nan nan nan nan nan nan nan nan nan nan nan nan 244 225 244 276 306 nan 352 342 330 325 330 324 320 323 325 328 334 337 335 333 333 331 329 334 336 341 351 348 343 337 329 328 329 327 325 333 327
nan nan nan nan nan nan nan nan nan nan nan nan nan nan nan nan nan nan nan nan nan nan nan nan nan nan nan 261 277 270 274 307 321 316 320 310 312 316 313 314 315 317 320 322 323 324 325 325 330 335 336 338 344 347 349 345 341 331 335 329 333 338 326
nan nan nan nan nan nan nan nan nan nan nan nan nan nan nan nan nan nan nan nan nan 255 nan nan nan nan nan nan nan nan 237 247 274 293 304 297 298 303 302 296 299 301 306 312 317 322 328 333 333 338 339 340 342 349 348 343 340 342 343 344 340 327 318
nan nan nan nan nan nan nan nan nan nan nan nan nan nan nan nan nan nan nan nan nan nan 250 nan nan 237 237 nan nan nan nan 242 264 nan 289 287 290 296 290 277 274 280 291 300 304 313 320 324 327 336 339 339 341 344 345 341 344 346 347 346 338 326 321
nan nan nan nan nan nan nan nan nan nan nan nan nan nan nan nan nan nan nan nan nan nan 250 nan nan nan nan nan nan nan 246 241 262 272 274 274 278 282 287 276 274 280 290 300 305 312 319 324 327 333 338 339 341 341 343 345 344 347 345 341 335 327 326
nan nan nan nan nan nan nan nan nan nan nan nan nan nan nan nan nan nan nan nan nan 248 246 nan nan nan nan nan nan nan nan 243 258 265 264 267 276 284 286 277 278 293 289 288 295 304 309 317 325 329 332 336 338 336 341 342 342 342 344 339 337 329 327
nan nan nan nan nan nan nan nan nan nan nan nan nan nan nan nan nan nan nan nan nan nan nan nan nan 255 nan nan 270 281 275 249 252 260 257 260 266 274 284 283 277 269 276 294 301 303 311 320 322 324 330 332 333 331 336 341 340 337 337 337 335 331 329
nan nan nan nan nan nan nan nan nan nan nan nan nan nan nan nan nan nan nan nan nan nan nan nan 256 257 255 255 261 269 270 260 259 259 254 248 255 264 266 270 277 286 285 287 294 302 305 308 309 314 322 325 325 326 331 336 339 337 335 339 336 334 332
nan nan nan nan nan nan nan nan nan nan nan nan nan nan nan nan nan nan nan nan nan nan nan nan 259 264 269 274 282 286 268 249 250 256 259 260 265 268 277 281 277 279 287 290 294 297 299 301 306 314 317 322 322 322 328 331 336 342 340 338 340 339 334
nan nan nan nan nan nan nan nan nan nan nan nan nan nan nan nan nan nan nan nan nan nan nan nan nan 264 269 264 249 246 257 258 253 259 257 257 264 277 288 294 293 289 291 292 295 296 299 308 310 312 315 318 324 328 327 324 326 332 328 331 332 332 333
nan nan nan nan nan nan nan nan nan nan nan nan nan nan nan nan nan nan nan 247 242 nan nan nan 245 245 nan nan nan nan 261 252 255 265 267 264 271 282 287 286 291 290 292 295 298 301 306 313 317 315 313 312 316 326 323 322 322 322 320 322 322 324 327
nan nan nan nan nan nan nan nan nan nan nan nan nan nan nan nan nan nan nan nan nan nan nan nan nan 242 246 241 228 234 244 253 260 272 275 275 277 285 291 289 286 286 293 297 304 309 310 311 312 310 308 312 318 325 320 323 325 322 322 321 321 321 322
nan nan nan nan nan nan nan nan nan nan nan nan nan nan nan nan nan nan nan nan nan nan 236 nan nan nan 242 224 214 218 232 242 253 265 278 281 280 284 288 289 289 293 298 302 306 304 301 302 305 307 304 308 317 319 322 325 323 322 321 319 317 317 317
nan nan nan nan nan nan nan nan nan nan nan nan nan nan nan nan nan nan nan nan nan nan 237 nan 243 246 237 224 213 217 221 238 245 252 257 264 273 281 285 285 288 290 288 289 293 295 294 295 295 295 306 313 314 313 314 315 320 320 320 319 317 315 313
nan nan nan nan nan nan nan nan nan nan nan nan nan nan nan nan nan nan nan nan nan 236 nan nan 240 233 226 219 213 215 nan 232 239 248 247 252 266 275 276 277 279 278 281 282 283 284 291 296 296 298 302 303 301 304 308 313 315 316 318 318 316 313 312
nan nan nan nan nan nan nan nan nan nan nan nan nan nan nan nan nan nan nan nan nan 232 231 nan 225 225 227 nan 222 219 218 225 241 256 258 267 268 268 269 273 273 276 280 282 286 290 290 289 290 294 296 297 299 301 305 308 309 313 314 315 314 311 309
nan 227 nan nan 219 nan nan nan nan nan nan nan nan nan nan nan nan nan nan nan nan nan nan nan nan 229 nan 225 223 nan nan nan 225 238 252 261 259 251 249 258 264 266 272 276 280 279 280 282 284 286 286 290 294 297 302 305 306 308 310 312 311 309 309
nan nan nan nan nan nan nan nan nan nan nan nan nan nan nan nan nan nan nan nan 231 233 nan nan nan 237 nan nan 224 227 230 nan 236 240 244 248 249 252 255 252 258 261 263 266 269 274 276 273 272 274 278 285 291 296 298 300 303 305 308 310 307 307 309
nan nan nan nan nan nan 227 225 219 nan nan nan nan nan nan 231 nan nan nan nan 231 237 240 242 243 240 nan 230 233 234 235 238 243 250 250 248 246 248 253 259 263 264 263 267 269 267 268 268 268 272 278 284 288 290 291 295 299 303 305 305 305 307 307
nan nan nan nan nan 227 226 219 nan nan nan nan nan nan nan 235 nan 226 nan nan 234 235 239 247 247 245 239 236 238 238 239 241 243 247 251 250 249 249 251 252 255 258 261 263 262 263 264 266 270 275 280 283 284 285 287 292 296 299 302 303 304 305 306
nan nan nan 229 230 233 225 nan nan nan nan nan 242 nan 234 225 222 nan nan nan nan 236 241 244 239 226 223 227 238 243 246 248 246 244 245 246 249 251 251 252 254 254 253 256 260 263 267 271 273 277 280 280 281 284 288 292 296 299 301 302 304 305 305
nan nan nan nan 225 233 nan nan nan nan nan nan 247 237 nan nan nan nan nan nan nan nan 236 236 235 236 236 238 240 244 248 253 254 254 253 252 249 249 252 255 258 258 258 261 264 265 267 269 272 275 278 280 284 287 288 293 297 299 302 303 304 305 306
nan nan nan nan nan 231 nan 202 207 230 226 233 236 231 226 222 225 227 227 230 231 234 238 237 238 239 242 246 247 247 248 252 256 258 258 258 258 259 259 257 257 260 259 260 261 264 266 268 270 271 274 279 284 286 289 294 297 300 301 303 304 305 305
220 224 225 nan 223 nan nan nan 211 214 215 218 226 230 230 222 225 229 231 229 232 235 236 238 237 240 246 246 248 251 250 250 251 251 250 249 249 249 247 247 248 253 258 261 263 265 269 271 271 271 274 279 284 287 291 295 298 299 301 302 303 304 303
223 223 222 nan nan 207 208 nan nan 211 211 217 223 231 231 230 224 225 232 234 232 235 239 235 236 239 238 240 239 242 241 242 245 247 244 243 243 243 245 249 253 256 261 266 266 267 269 272 274 277 281 284 287 289 293 297 299 299 299 299 301 301 300
222 nan nan nan 202 203 205 205 209 212 212 210 212 222 232 228 230 229 233 234 236 235 234 239 235 238 240 240 241 243 244 245 247 249 249 248 250 252 257 261 263 265 265 265 265 266 269 273 277 281 284 285 287 289 293 296 296 296 296 297 297 297 297
nan nan 222 nan nan 203 207 204 nan nan nan nan nan nan nan nan nan nan 231 233 nan 233 233 235 238 239 241 246 246 245 245 245 247 248 249 248 249 252 257 262 267 265 264 264 266 269 273 277 280 282 284 284 285 289 292 293 294 294 294 294 293 294 296
222 nan 243 nan nan 206 nan nan nan nan nan nan nan nan nan 218 221 224 225 229 nan 232 233 232 236 237 238 241 241 242 243 245 245 243 242 241 243 242 244 249 255 257 259 265 271 276 279 282 283 283 284 285 287 289 289 290 290 290 291 291 292 293 296
nan nan 226 nan nan nan nan nan nan nan nan nan nan nan nan nan nan nan nan 225 nan nan 234 234 236 237 236 236 238 239 239 239 239 238 239 241 243 244 242 243 247 254 262 269 274 278 280 282 284 283 283 284 286 287 287 287 287 289 290 291 291 292 294
nan 248 nan nan nan nan nan nan nan nan nan nan nan nan nan nan nan nan nan nan nan nan nan 238 241 239 236 235 237 237 236 237 239 242 244 246 246 246 247 249 252 258 264 270 274 276 279 283 285 285 284 283 283 284 284 286 289 290 291 291 291 291 292
nan nan nan nan nan nan nan nan nan nan nan nan nan nan nan nan nan nan nan nan nan nan 230 233 238 237 235 233 nan nan nan 239 243 246 248 250 251 252 254 257 260 263 266 269 272 277 281 283 285 285 284 282 281 281 284 287 291 290 290 289 290 290 290
nan nan nan nan nan nan nan nan nan nan nan nan nan nan nan nan nan nan nan nan nan nan nan nan nan nan nan nan nan nan nan nan nan nan 248 250 251 251 253 256 261 265 266 270 274 278 280 282 283 284 284 282 281 281 283 286 287 287 289 289 289 288 289
nan nan nan nan nan nan nan nan nan nan nan nan nan nan nan nan nan nan nan nan nan nan nan nan nan nan nan nan nan nan nan nan nan nan 250 252 251 252 254 258 263 265 268 270 274 276 279 281 280 280 280 278 278 279 281 283 285 286 288 287 287 285 285